TimeEEST,TemperatureF,Dew PointF,Humidity,Sea Level PressureIn,VisibilityMPH,Wind Direction,Wind SpeedMPH,Gust SpeedMPH,PrecipitationIn,Events,Conditions,WindDirDegrees,DateUTC
12:50 AM,64.4,55.4,73,29.86,6.2,Calm,Calm,-,N/A,,Scattered Clouds,0,2013-05-16 21:50:00
1:50 AM,64.4,55.4,73,29.86,6.2,Calm,Calm,-,N/A,,Scattered Clouds,0,2013-05-16 22:50:00
2:50 AM,62.6,57.2,82,29.86,6.2,Calm,Calm,-,N/A,,Scattered Clouds,0,2013-05-16 23:50:00
3:50 AM,62.6,55.4,77,29.86,6.2,Calm,Calm,-,N/A,,Scattered Clouds,0,2013-05-17 00:50:00
4:50 AM,60.8,57.2,88,29.86,-9999.0,Calm,Calm,-,N/A,,Clear,0,2013-05-17 01:50:00
5:50 AM,60.8,57.2,88,29.86,-9999.0,Calm,Calm,-,N/A,,Clear,0,2013-05-17 02:50:00
6:20 AM,60.8,57.2,88,29.86,-9999.0,Calm,Calm,-,N/A,,Clear,0,2013-05-17 03:20:00
6:50 AM,60.8,57.2,88,29.86,-9999.0,Calm,Calm,-,N/A,,Clear,0,2013-05-17 03:50:00
7:20 AM,62.6,57.2,82,29.86,-9999.0,Calm,Calm,-,N/A,,Clear,0,2013-05-17 04:20:00
7:50 AM,66.2,59.0,78,29.86,-9999.0,Calm,Calm,-,N/A,,Clear,0,2013-05-17 04:50:00
8:20 AM,71.6,57.2,60,29.83,-9999.0,Calm,Calm,-,N/A,,Clear,0,2013-05-17 05:20:00
8:50 AM,73.4,55.4,53,29.86,-9999.0,SSW,3.5,-,N/A,,Clear,210,2013-05-17 05:50:00
9:20 AM,73.4,55.4,53,29.83,-9999.0,South,3.5,-,N/A,,Clear,170,2013-05-17 06:20:00
9:50 AM,75.2,55.4,50,29.83,-9999.0,SSW,4.6,-,N/A,,Clear,200,2013-05-17 06:50:00
10:20 AM,73.4,57.2,57,29.86,-9999.0,SSW,5.8,-,N/A,,Clear,210,2013-05-17 07:20:00
10:50 AM,75.2,55.4,50,29.86,-9999.0,South,6.9,-,N/A,,Clear,190,2013-05-17 07:50:00
11:20 AM,75.2,55.4,50,29.89,-9999.0,South,8.1,-,N/A,,Clear,190,2013-05-17 08:20:00
11:50 AM,71.6,55.4,57,29.92,6.2,South,3.5,-,N/A,,Scattered Clouds,180,2013-05-17 08:50:00
12:20 PM,71.6,57.2,60,29.95,6.2,Calm,Calm,-,N/A,,Mostly Cloudy,0,2013-05-17 09:20:00
12:50 PM,69.8,59.0,68,29.89,6.2,ESE,5.8,-,N/A,,Mostly Cloudy,110,2013-05-17 09:50:00
1:20 PM,71.6,59.0,64,29.86,6.2,Calm,Calm,-,N/A,,Mostly Cloudy,0,2013-05-17 10:20:00
1:50 PM,75.2,59.0,57,29.89,6.2,SE,5.8,-,N/A,,Scattered Clouds,130,2013-05-17 10:50:00
2:20 PM,77.0,55.4,47,29.86,6.2,SSE,3.5,-,N/A,,Scattered Clouds,150,2013-05-17 11:20:00
2:50 PM,77.0,57.2,50,29.86,6.2,Calm,Calm,-,N/A,,Scattered Clouds,0,2013-05-17 11:50:00
3:20 PM,77.0,55.4,47,29.86,6.2,WSW,3.5,-,N/A,,Scattered Clouds,240,2013-05-17 12:20:00
3:50 PM,77.0,55.4,47,29.86,6.2,SW,3.5,-,N/A,,Scattered Clouds,220,2013-05-17 12:50:00
4:20 PM,80.6,53.6,39,29.86,6.2,SE,4.6,-,N/A,,Scattered Clouds,140,2013-05-17 13:20:00
4:50 PM,80.6,53.6,39,29.83,6.2,SSE,5.8,-,N/A,,Partly Cloudy,160,2013-05-17 13:50:00
5:20 PM,77.0,53.6,44,29.86,6.2,SW,6.9,-,N/A,,Partly Cloudy,220,2013-05-17 14:20:00
5:50 PM,75.2,59.0,57,29.86,6.2,SSW,5.8,-,N/A,,Mostly Cloudy,200,2013-05-17 14:50:00
6:20 PM,77.0,55.4,47,29.86,6.2,South,4.6,-,N/A,,Mostly Cloudy,180,2013-05-17 15:20:00
6:50 PM,77.0,57.2,50,29.86,6.2,SSW,3.5,-,N/A,,Scattered Clouds,210,2013-05-17 15:50:00
7:20 PM,75.2,59.0,57,29.86,6.2,SSW,5.8,-,N/A,,Scattered Clouds,210,2013-05-17 16:20:00
7:50 PM,73.4,59.0,61,29.89,6.2,SW,4.6,-,N/A,,Scattered Clouds,220,2013-05-17 16:50:00
8:20 PM,71.6,59.0,64,29.89,6.2,SW,3.5,-,N/A,,Scattered Clouds,230,2013-05-17 17:20:00
8:50 PM,69.8,60.8,73,29.89,6.2,SW,3.5,-,N/A,,Scattered Clouds,220,2013-05-17 17:50:00
9:20 PM,69.8,60.8,73,29.92,6.2,SW,3.5,-,N/A,,Scattered Clouds,220,2013-05-17 18:20:00
9:50 PM,69.8,60.8,73,29.92,6.2,Calm,Calm,-,N/A,,Partly Cloudy,0,2013-05-17 18:50:00
10:20 PM,68.0,60.8,78,29.92,6.2,NNW,3.5,-,N/A,,Partly Cloudy,340,2013-05-17 19:20:00
10:50 PM,66.2,59.0,78,29.92,-9999.0,Calm,Calm,-,N/A,,Clear,0,2013-05-17 19:50:00
11:20 PM,66.2,59.0,78,29.92,-9999.0,Calm,Calm,-,N/A,,Clear,0,2013-05-17 20:20:00
11:50 PM,64.4,59.0,83,29.92,-9999.0,NW,3.5,-,N/A,,Clear,320,2013-05-17 20:50:00